OBJECT A, 60235

Orbit data source: Space-Track

You're viewing an Uncataloged Satellite

Recently launched and/or uncataloged satellites may have evolving metadata. Metadata may include but not limited to: Owner, Maufacturer, Bus, Motor, and Mission.

OBJECT A, 60235 is a satellite in LEO that was launched on Tue, 09 Jul 2024 UTC via an ARIANE 62 launch vehicle from the French Guiana (FRGUI). Unknown objects in Earth's orbit typically refer to objects detected orbiting the Earth but have not yet been identified or cataloged. These objects could be anything from previously untracked satellites, spent rocket stages, debris from satellite collisions, or even natural meteoroids temporarily captured by Earth's gravity.

Loading next visibility...
Identifier
60235, 2024-128A
Orbit
LEO
Last TLE update
12 hours ago
Origin
Flag of TBDUCB/NASA (TBD)
Manufacturer
UCB
Mission
Amateur Science
Bus & Motor
CUBESAT 3U, Unknown motor
Mass
5 kg wet, 5 kg dry
Launch date (UTC)
2024-07-09 (1 year ago)
Launch vehicle
ARIANE 62
Launch site
French Guiana (FRGUI)
Object type
Unknown
Shape & HBR
Box, 0.3 m
Radar Cross Section
0.035 m², Small (<0.1 m²)

Expand to show TLE details & history

TLE from 12 hours ago
0 OBJECT A
1 60235U 24128A   25181.87211653  .00001602  00000-0  14462-3 0  9992
2 60235  61.9942  11.1427 0058510  55.3975 305.2613 14.98819981 53307
Epoch: 2025-06-30T20:55Z
TLE epoch observation values (Epoch: 2025-06-30T20:55:50.868Z)
Latitude
-0.00002°
Longitude
138.00505°
Altitude
548.995 km
Speed
7.601 km/s
True Right ascension
00h 44m 34s
True Declination
0° 00' 00"
Sunlit
Object was in daylight at epoch
Visualization orbit readout
Latitude
-39.7335°
Longitude
-17.67469°
Altitude
624.579 km
Speed
7.524 km/s
Apparent Right ascension
11h 44m 07s
Apparent Declination
-48° 02' 01"
Sunlit
Object is in full shadow
Visualization observer readout
Local Sidereal Time
20:46:41
Azimuth
240.594° WSW
Elevation
-57.545°
Doppler factor
1
Orbital elements
Apogee altitude
610.123 km
Perigee altitude
528.822 km
Semi-major axis
6,947.61 km
Eccentricity
0.00585
Inclination
61.9942°
RAAN
11.1427°
Arg. of periapsis
55.3975°
True anomaly
Unknown
Mean anomaly
305.2613°
Eccentric anomaly
Unknown
Mean motion
3.74792 °/min
Orbital period
96.05 mins
BSTAR
0.00014462
Loading maneuver chart data...
Loading SW <> Apogee altitude chart data...
Loading historical data...
Loading historical data...
Loading historical data...
Loading historical data...
Loading historical data...
Loading historical data...
Loading historical data...

OBJECT A Visibility forecast

Observer location: undefined°, undefined°

Span
Click to sort rows by Start time (UTC) header in descending order
Start Az.
Max El. time (UTC)
Max El. Az.
Max El.
End time (UTC)
End Az.
7 mins2025-07-01 14:41:27.635Z218.445° SW2025-07-01 14:45:27.635Z13.28° NNE42.876°2025-07-01 14:48:27.635Z33.647° NE
7 mins2025-07-01 23:05:27.635Z321.021° NNW2025-07-01 23:08:27.635Z205.521° SW44.521°2025-07-01 23:12:27.635Z148.87° SSE
|